Year,Month,Day,Hour,Minute,Value (Times are PST for temperature in C)
2016,08,25,00,00,21.60
2016,08,25,00,01,21.60
2016,08,25,00,02,21.60
2016,08,25,00,03,21.60
2016,08,25,00,04,21.60
2016,08,25,00,05,21.70
2016,08,25,00,06,21.70
2016,08,25,00,07,21.70
2016,08,25,00,08,21.70
2016,08,25,00,09,21.70
2016,08,25,00,10,21.70
2016,08,25,00,11,21.70
2016,08,25,00,12,21.70
2016,08,25,00,13,21.70
2016,08,25,00,14,21.70
2016,08,25,00,15,21.70
2016,08,25,00,16,21.70
2016,08,25,00,17,21.70
2016,08,25,00,18,21.70
2016,08,25,00,19,21.70
2016,08,25,00,20,21.70
2016,08,25,00,21,21.60
2016,08,25,00,22,21.60
2016,08,25,00,23,21.60
2016,08,25,00,24,21.60
2016,08,25,00,25,21.60
2016,08,25,00,26,21.60
2016,08,25,00,27,21.60
2016,08,25,00,28,21.50
2016,08,25,00,29,21.50
2016,08,25,00,30,21.50
2016,08,25,00,31,21.50
2016,08,25,00,32,21.40
2016,08,25,00,33,21.40
2016,08,25,00,34,21.40
2016,08,25,00,35,21.40
2016,08,25,00,36,21.40
2016,08,25,00,37,21.30
2016,08,25,00,38,21.30
2016,08,25,00,39,21.30
2016,08,25,00,40,21.20
2016,08,25,00,41,21.20
2016,08,25,00,42,21.20
2016,08,25,00,43,21.20
2016,08,25,00,44,21.10
2016,08,25,00,45,21.10
2016,08,25,00,46,21.00
2016,08,25,00,47,21.00
2016,08,25,00,48,20.90
2016,08,25,00,49,20.80
2016,08,25,00,50,20.70
2016,08,25,00,51,20.60
2016,08,25,00,52,20.50
2016,08,25,00,53,20.50
2016,08,25,00,54,20.40
2016,08,25,00,55,20.30
2016,08,25,00,56,20.30
2016,08,25,00,57,20.30
2016,08,25,00,58,20.20
2016,08,25,00,59,20.20
2016,08,25,01,00,20.10
2016,08,25,01,01,20.10
2016,08,25,01,02,20.00
2016,08,25,01,03,20.00
2016,08,25,01,04,19.90
2016,08,25,01,05,19.90
2016,08,25,01,06,19.90
2016,08,25,01,07,19.80
2016,08,25,01,08,19.80
2016,08,25,01,09,19.80
2016,08,25,01,10,19.80
2016,08,25,01,11,19.80
2016,08,25,01,12,19.70
2016,08,25,01,13,19.70
2016,08,25,01,14,19.70
2016,08,25,01,15,19.70
2016,08,25,01,16,19.70
2016,08,25,01,17,19.70
2016,08,25,01,18,19.70
2016,08,25,01,19,19.80
2016,08,25,01,20,19.70
2016,08,25,01,21,19.70
2016,08,25,01,22,19.70
2016,08,25,01,23,19.70
2016,08,25,01,24,19.70
2016,08,25,01,25,19.70
2016,08,25,01,26,19.70
2016,08,25,01,27,19.70
2016,08,25,01,28,19.70
2016,08,25,01,29,19.70
2016,08,25,01,30,19.70
2016,08,25,01,31,19.60
2016,08,25,01,32,19.60
2016,08,25,01,33,19.60
2016,08,25,01,34,19.60
2016,08,25,01,35,19.60
2016,08,25,01,36,19.60
2016,08,25,01,37,19.60
2016,08,25,01,38,19.60
2016,08,25,01,39,19.60
2016,08,25,01,40,19.60
2016,08,25,01,41,19.60
2016,08,25,01,42,19.60
2016,08,25,01,43,19.60
2016,08,25,01,44,19.60
2016,08,25,01,45,19.50
2016,08,25,01,46,19.50
2016,08,25,01,47,19.40
2016,08,25,01,48,19.40
2016,08,25,01,49,19.30
2016,08,25,01,50,19.30
2016,08,25,01,51,19.20
2016,08,25,01,52,19.20
2016,08,25,01,53,19.10
2016,08,25,01,54,19.10
2016,08,25,01,55,19.00
2016,08,25,01,56,19.00
2016,08,25,01,57,19.00
2016,08,25,01,58,19.00
2016,08,25,01,59,19.00
2016,08,25,02,00,18.90
2016,08,25,02,01,18.90
2016,08,25,02,02,18.90
2016,08,25,02,03,18.90
2016,08,25,02,04,19.00
2016,08,25,02,05,18.90
2016,08,25,02,06,18.90
2016,08,25,02,07,18.90
2016,08,25,02,08,18.90
2016,08,25,02,09,18.90
2016,08,25,02,10,18.90
2016,08,25,02,11,18.90
2016,08,25,02,12,18.90
2016,08,25,02,13,18.90
2016,08,25,02,14,18.90
2016,08,25,02,15,18.90
2016,08,25,02,16,18.90
2016,08,25,02,17,18.90
2016,08,25,02,18,18.90
2016,08,25,02,19,18.90
2016,08,25,02,20,18.90
2016,08,25,02,21,18.90
2016,08,25,02,22,18.90
2016,08,25,02,23,18.90
2016,08,25,02,24,18.80
2016,08,25,02,25,18.80
2016,08,25,02,26,18.80
2016,08,25,02,27,18.80
2016,08,25,02,28,18.80
2016,08,25,02,29,18.80
2016,08,25,02,30,18.80
2016,08,25,02,31,18.80
2016,08,25,02,32,18.70
2016,08,25,02,33,18.70
2016,08,25,02,34,18.70
2016,08,25,02,35,18.70
2016,08,25,02,36,18.70
2016,08,25,02,37,18.60
2016,08,25,02,38,18.60
2016,08,25,02,39,18.60
2016,08,25,02,40,18.60
2016,08,25,02,41,18.60
2016,08,25,02,42,18.60
2016,08,25,02,43,18.60
2016,08,25,02,44,18.60
2016,08,25,02,45,18.60
2016,08,25,02,46,18.60
2016,08,25,02,47,18.60
2016,08,25,02,48,18.60
2016,08,25,02,49,18.60
2016,08,25,02,50,18.60
2016,08,25,02,51,18.60
2016,08,25,02,52,18.60
2016,08,25,02,53,18.60
2016,08,25,02,54,18.50
2016,08,25,02,55,18.50
2016,08,25,02,56,18.50
2016,08,25,02,57,18.50
2016,08,25,02,58,18.50
2016,08,25,02,59,18.60
2016,08,25,03,00,18.60
2016,08,25,03,01,18.60
2016,08,25,03,02,18.60
2016,08,25,03,03,18.60
2016,08,25,03,04,18.60
2016,08,25,03,05,18.60
2016,08,25,03,06,18.70
2016,08,25,03,07,18.70
2016,08,25,03,08,18.70
2016,08,25,03,09,18.70
2016,08,25,03,10,18.70
2016,08,25,03,11,18.70
2016,08,25,03,12,18.70
2016,08,25,03,13,18.70
2016,08,25,03,14,18.70
2016,08,25,03,15,18.70
2016,08,25,03,16,18.70
2016,08,25,03,17,18.70
2016,08,25,03,18,18.70
2016,08,25,03,19,18.80
2016,08,25,03,20,18.80
2016,08,25,03,21,18.80
2016,08,25,03,22,18.90
2016,08,25,03,23,19.00
2016,08,25,03,24,19.00
2016,08,25,03,25,19.10
2016,08,25,03,26,19.20
2016,08,25,03,27,19.30
2016,08,25,03,28,19.40
2016,08,25,03,29,19.50
2016,08,25,03,30,19.50
2016,08,25,03,31,19.60
2016,08,25,03,32,19.60
2016,08,25,03,33,19.70
2016,08,25,03,34,19.70
2016,08,25,03,35,19.70
2016,08,25,03,36,19.80
2016,08,25,03,37,19.80
2016,08,25,03,38,19.80
2016,08,25,03,39,19.80
2016,08,25,03,40,19.90
2016,08,25,03,41,19.90
2016,08,25,03,42,20.00
2016,08,25,03,43,20.00
2016,08,25,03,44,20.10
2016,08,25,03,45,20.20
2016,08,25,03,46,20.30
2016,08,25,03,47,20.40
2016,08,25,03,48,20.50
2016,08,25,03,49,20.60
2016,08,25,03,50,20.70
2016,08,25,03,51,20.80
2016,08,25,03,52,20.90
2016,08,25,03,53,21.00
2016,08,25,03,54,21.00
2016,08,25,03,55,21.10
2016,08,25,03,56,21.20
2016,08,25,03,57,21.30
2016,08,25,03,58,21.30
2016,08,25,03,59,21.40
2016,08,25,04,00,21.40
2016,08,25,04,01,21.50
2016,08,25,04,02,21.50
2016,08,25,04,03,21.60
2016,08,25,04,04,21.60
2016,08,25,04,05,21.70
2016,08,25,04,06,21.70
2016,08,25,04,07,21.70
2016,08,25,04,08,21.70
2016,08,25,04,09,21.70
2016,08,25,04,10,21.60
2016,08,25,04,11,21.60
2016,08,25,04,12,21.50
2016,08,25,04,13,21.40
2016,08,25,04,14,21.30
2016,08,25,04,15,21.30
2016,08,25,04,16,21.30
2016,08,25,04,17,21.20
2016,08,25,04,18,21.20
2016,08,25,04,19,21.20
2016,08,25,04,20,21.20
2016,08,25,04,21,21.30
2016,08,25,04,22,21.30
2016,08,25,04,23,21.30
2016,08,25,04,24,21.30
2016,08,25,04,25,21.30
2016,08,25,04,26,21.30
2016,08,25,04,27,21.30
2016,08,25,04,28,21.40
2016,08,25,04,29,21.40
2016,08,25,04,30,21.40
2016,08,25,04,31,21.40
2016,08,25,04,32,21.40
2016,08,25,04,33,21.40
2016,08,25,04,34,21.40
2016,08,25,04,35,21.30
2016,08,25,04,36,21.30
2016,08,25,04,37,21.30
2016,08,25,04,38,21.30
2016,08,25,04,39,21.20
2016,08,25,04,40,21.20
2016,08,25,04,41,21.20
2016,08,25,04,42,21.20
2016,08,25,04,43,21.10
2016,08,25,04,44,21.10
2016,08,25,04,45,21.10
2016,08,25,04,46,21.00
2016,08,25,04,47,21.00
2016,08,25,04,48,20.90
2016,08,25,04,49,20.80
2016,08,25,04,50,20.80
2016,08,25,04,51,20.80
2016,08,25,04,52,20.70
2016,08,25,04,53,20.70
2016,08,25,04,54,20.60
2016,08,25,04,55,20.60
2016,08,25,04,56,20.50
2016,08,25,04,57,20.40
2016,08,25,04,58,20.40
2016,08,25,04,59,20.30
2016,08,25,05,00,20.10
2016,08,25,05,01,20.00
2016,08,25,05,02,19.80
2016,08,25,05,03,19.60
2016,08,25,05,04,19.50
2016,08,25,05,05,19.30
2016,08,25,05,06,19.10
2016,08,25,05,07,19.00
2016,08,25,05,08,18.90
2016,08,25,05,09,18.80
2016,08,25,05,10,18.80
2016,08,25,05,11,18.70
2016,08,25,05,12,18.70
2016,08,25,05,13,18.60
2016,08,25,05,14,18.60
2016,08,25,05,15,18.60
2016,08,25,05,16,18.60
2016,08,25,05,17,18.60
2016,08,25,05,18,18.70
2016,08,25,05,19,18.70
2016,08,25,05,20,18.70
2016,08,25,05,21,18.80
2016,08,25,05,22,18.80
2016,08,25,05,23,18.80
2016,08,25,05,24,18.80
2016,08,25,05,25,18.90
2016,08,25,05,26,18.90
2016,08,25,05,27,18.90
2016,08,25,05,28,18.90
2016,08,25,05,29,18.90
2016,08,25,05,30,19.00
2016,08,25,05,31,19.00
2016,08,25,05,32,19.00
2016,08,25,05,33,19.00
2016,08,25,05,34,19.00
2016,08,25,05,35,19.00
2016,08,25,05,36,19.00
2016,08,25,05,37,18.90
2016,08,25,05,38,18.90
2016,08,25,05,39,19.00
2016,08,25,05,40,19.00
2016,08,25,05,41,19.00
2016,08,25,05,42,19.10
2016,08,25,05,43,19.10
2016,08,25,05,44,19.10
2016,08,25,05,45,19.10
2016,08,25,05,46,19.10
2016,08,25,05,47,19.10
2016,08,25,05,48,19.10
2016,08,25,05,49,19.10
2016,08,25,05,50,19.10
2016,08,25,05,51,19.10
2016,08,25,05,52,19.10
2016,08,25,05,53,19.10
2016,08,25,05,54,19.10
2016,08,25,05,55,19.10
2016,08,25,05,56,19.20
2016,08,25,05,57,19.20
2016,08,25,05,58,19.20
2016,08,25,05,59,19.20
2016,08,25,06,00,19.10
2016,08,25,06,01,19.10
2016,08,25,06,02,19.00
2016,08,25,06,03,19.00
2016,08,25,06,04,18.80
2016,08,25,06,05,18.70
2016,08,25,06,06,18.60
2016,08,25,06,07,18.50
2016,08,25,06,08,18.40
2016,08,25,06,09,18.30
2016,08,25,06,10,18.30
2016,08,25,06,11,18.20
2016,08,25,06,12,18.10
2016,08,25,06,13,18.00
2016,08,25,06,14,17.90
2016,08,25,06,15,17.80
2016,08,25,06,16,17.80
2016,08,25,06,17,17.70
2016,08,25,06,18,17.70
2016,08,25,06,19,17.60
2016,08,25,06,20,17.60
2016,08,25,06,21,17.60
2016,08,25,06,22,17.50
2016,08,25,06,23,17.50
2016,08,25,06,24,17.40
2016,08,25,06,25,17.40
2016,08,25,06,26,17.30
2016,08,25,06,27,17.30
2016,08,25,06,28,17.30
2016,08,25,06,29,17.30
2016,08,25,06,30,17.30
2016,08,25,06,31,17.30
2016,08,25,06,32,17.30
2016,08,25,06,33,17.40
2016,08,25,06,34,17.40
2016,08,25,06,35,17.50
2016,08,25,06,36,17.50
2016,08,25,06,37,17.60
2016,08,25,06,38,17.60
2016,08,25,06,39,17.60
2016,08,25,06,40,17.60
2016,08,25,06,41,17.60
2016,08,25,06,42,17.70
2016,08,25,06,43,17.70
2016,08,25,06,44,17.70
2016,08,25,06,45,17.70
2016,08,25,06,46,17.70
2016,08,25,06,47,17.70
2016,08,25,06,48,17.70
2016,08,25,06,49,17.70
2016,08,25,06,50,17.70
2016,08,25,06,51,17.70
2016,08,25,06,52,17.60
2016,08,25,06,53,17.60
2016,08,25,06,54,17.60
2016,08,25,06,55,17.70
2016,08,25,06,56,17.70
2016,08,25,06,57,17.70
2016,08,25,06,58,17.80
2016,08,25,06,59,17.80
2016,08,25,07,00,17.80
2016,08,25,07,01,17.80
2016,08,25,07,02,17.80
2016,08,25,07,03,17.80
2016,08,25,07,04,17.80
2016,08,25,07,05,17.80
2016,08,25,07,06,17.70
2016,08,25,07,07,17.70
2016,08,25,07,08,17.70
2016,08,25,07,09,17.70
2016,08,25,07,10,17.70
2016,08,25,07,11,17.70
2016,08,25,07,12,17.70
2016,08,25,07,13,17.70
2016,08,25,07,14,17.70
2016,08,25,07,15,17.70
2016,08,25,07,16,17.70
2016,08,25,07,17,17.80
2016,08,25,07,18,17.80
2016,08,25,07,19,17.80
2016,08,25,07,20,17.80
2016,08,25,07,21,17.80
2016,08,25,07,22,17.80
2016,08,25,07,23,17.90
2016,08,25,07,24,18.00
2016,08,25,07,25,18.00
2016,08,25,07,26,18.10
2016,08,25,07,27,18.20
2016,08,25,07,28,18.20
2016,08,25,07,29,18.30
2016,08,25,07,30,18.30
2016,08,25,07,31,18.40
2016,08,25,07,32,18.40
2016,08,25,07,33,18.50
2016,08,25,07,34,18.60
2016,08,25,07,35,18.70
2016,08,25,07,36,18.70
2016,08,25,07,37,18.80
2016,08,25,07,38,18.90
2016,08,25,07,39,19.00
2016,08,25,07,40,19.10
2016,08,25,07,41,19.20
2016,08,25,07,42,19.30
2016,08,25,07,43,19.40
2016,08,25,07,44,19.40
2016,08,25,07,45,19.50
2016,08,25,07,46,19.60
2016,08,25,07,47,19.70
2016,08,25,07,48,19.80
2016,08,25,07,49,19.80
2016,08,25,07,50,19.90
2016,08,25,07,51,19.90
2016,08,25,07,52,20.00
2016,08,25,07,53,20.00
2016,08,25,07,54,20.00
2016,08,25,07,55,20.10
2016,08,25,07,56,20.20
2016,08,25,07,57,20.20
2016,08,25,07,58,20.30
2016,08,25,07,59,20.40
2016,08,25,08,00,20.50
2016,08,25,08,01,20.60
2016,08,25,08,02,20.60
2016,08,25,08,03,20.70
2016,08,25,08,04,20.70
2016,08,25,08,05,20.80
2016,08,25,08,06,20.90
2016,08,25,08,07,20.90
2016,08,25,08,08,21.00
2016,08,25,08,09,21.10
2016,08,25,08,10,21.10
2016,08,25,08,11,21.20
2016,08,25,08,12,21.20
2016,08,25,08,13,21.30
2016,08,25,08,14,21.30
2016,08,25,08,15,21.30
2016,08,25,08,16,21.40
2016,08,25,08,17,21.50
2016,08,25,08,18,21.60
2016,08,25,08,19,21.70
2016,08,25,08,20,21.70
2016,08,25,08,21,21.80
2016,08,25,08,22,21.80
2016,08,25,08,23,21.90
2016,08,25,08,24,21.90
2016,08,25,08,25,22.00
2016,08,25,08,26,22.00
2016,08,25,08,27,22.10
2016,08,25,08,28,22.10
2016,08,25,08,29,22.10
2016,08,25,08,30,22.20
2016,08,25,08,31,22.20
2016,08,25,08,32,22.20
2016,08,25,08,33,22.20
2016,08,25,08,34,22.20
2016,08,25,08,35,22.20
2016,08,25,08,36,22.10
2016,08,25,08,37,22.10
2016,08,25,08,38,22.10
2016,08,25,08,39,22.10
2016,08,25,08,40,22.20
2016,08,25,08,41,22.20
2016,08,25,08,42,22.20
2016,08,25,08,43,22.30
2016,08,25,08,44,22.30
2016,08,25,08,45,22.40
2016,08,25,08,46,22.40
2016,08,25,08,47,22.50
2016,08,25,08,48,22.60
2016,08,25,08,49,22.60
2016,08,25,08,50,22.70
2016,08,25,08,51,22.70
2016,08,25,08,52,22.70
2016,08,25,08,53,22.80
2016,08,25,08,54,22.80
2016,08,25,08,55,22.80
2016,08,25,08,56,22.80
2016,08,25,08,57,22.80
2016,08,25,08,58,22.80
2016,08,25,08,59,22.90
2016,08,25,09,00,23.00
2016,08,25,09,01,23.00
2016,08,25,09,02,23.10
2016,08,25,09,03,23.10
2016,08,25,09,04,23.10
2016,08,25,09,05,23.10
2016,08,25,09,06,23.10
2016,08,25,09,07,23.10
2016,08,25,09,08,23.10
2016,08,25,09,09,23.10
2016,08,25,09,10,23.10
2016,08,25,09,11,23.20
2016,08,25,09,12,23.20
2016,08,25,09,13,23.30
2016,08,25,09,14,23.40
2016,08,25,09,15,23.50
2016,08,25,09,16,23.50
2016,08,25,09,17,23.60
2016,08,25,09,18,23.60
2016,08,25,09,19,23.60
2016,08,25,09,20,23.70
2016,08,25,09,21,23.70
2016,08,25,09,22,23.70
2016,08,25,09,23,23.70
2016,08,25,09,24,23.70
2016,08,25,09,25,23.70
2016,08,25,09,26,23.70
2016,08,25,09,27,23.60
2016,08,25,09,28,23.60
2016,08,25,09,29,23.60
2016,08,25,09,30,23.60
2016,08,25,09,31,23.60
2016,08,25,09,32,23.60
2016,08,25,09,33,23.60
2016,08,25,09,34,23.60
2016,08,25,09,35,23.60
2016,08,25,09,36,23.70
2016,08,25,09,37,23.70
2016,08,25,09,38,23.70
2016,08,25,09,39,23.70
2016,08,25,09,40,23.80
2016,08,25,09,41,23.80
2016,08,25,09,42,23.90
2016,08,25,09,43,23.90
2016,08,25,09,44,24.00
2016,08,25,09,45,24.00
2016,08,25,09,46,24.10
2016,08,25,09,47,24.10
2016,08,25,09,48,24.20
2016,08,25,09,49,24.20
2016,08,25,09,50,24.20
2016,08,25,09,51,24.30
2016,08,25,09,52,24.30
2016,08,25,09,53,24.40
2016,08,25,09,54,24.40
2016,08,25,09,55,24.50
2016,08,25,09,56,24.60
2016,08,25,09,57,24.60
2016,08,25,09,58,24.60
2016,08,25,09,59,24.60
2016,08,25,10,00,24.60
2016,08,25,10,01,24.60
2016,08,25,10,02,24.60
2016,08,25,10,03,24.60
2016,08,25,10,04,24.60
2016,08,25,10,05,24.60
2016,08,25,10,06,24.60
2016,08,25,10,07,24.60
2016,08,25,10,08,24.60
2016,08,25,10,09,24.60
2016,08,25,10,10,24.60
2016,08,25,10,11,24.60
2016,08,25,10,12,24.60
2016,08,25,10,13,24.60
2016,08,25,10,14,24.60
2016,08,25,10,15,24.60
2016,08,25,10,16,24.60
2016,08,25,10,17,24.60
2016,08,25,10,18,24.50
2016,08,25,10,19,24.40
2016,08,25,10,20,24.40
2016,08,25,10,21,24.30
2016,08,25,10,22,24.30
2016,08,25,10,23,24.30
2016,08,25,10,24,24.30
2016,08,25,10,25,24.30
2016,08,25,10,26,24.40
2016,08,25,10,27,24.40
2016,08,25,10,28,24.50
2016,08,25,10,29,24.60
2016,08,25,10,30,24.60
2016,08,25,10,31,24.70
2016,08,25,10,32,24.80
2016,08,25,10,33,24.80
2016,08,25,10,34,24.80
2016,08,25,10,35,24.90
2016,08,25,10,36,24.90
2016,08,25,10,37,25.00
2016,08,25,10,38,25.00
2016,08,25,10,39,24.90
2016,08,25,10,40,24.90
2016,08,25,10,41,25.00
2016,08,25,10,42,25.00
2016,08,25,10,43,25.00
2016,08,25,10,44,25.00
2016,08,25,10,45,25.10
2016,08,25,10,46,25.10
2016,08,25,10,47,25.10
2016,08,25,10,48,25.20
2016,08,25,10,49,25.20
2016,08,25,10,50,25.30
2016,08,25,10,51,25.30
2016,08,25,10,52,25.30
2016,08,25,10,53,25.40
2016,08,25,10,54,25.40
2016,08,25,10,55,25.50
2016,08,25,10,56,25.50
2016,08,25,10,57,25.60
2016,08,25,10,58,25.70
2016,08,25,10,59,25.70
2016,08,25,11,00,25.80
2016,08,25,11,01,25.80
2016,08,25,11,02,25.80
2016,08,25,11,03,25.80
2016,08,25,11,04,25.80
2016,08,25,11,05,25.80
2016,08,25,11,06,25.80
2016,08,25,11,07,25.80
2016,08,25,11,08,25.80
2016,08,25,11,09,25.80
2016,08,25,11,10,25.80
2016,08,25,11,11,25.80
2016,08,25,11,12,25.80
2016,08,25,11,13,25.80
2016,08,25,11,14,25.90
2016,08,25,11,15,25.90
2016,08,25,11,16,26.00
2016,08,25,11,17,26.10
2016,08,25,11,18,26.10
2016,08,25,11,19,26.20
2016,08,25,11,20,26.20
2016,08,25,11,21,26.30
2016,08,25,11,22,26.30
2016,08,25,11,23,26.40
2016,08,25,11,24,26.50
2016,08,25,11,25,26.60
2016,08,25,11,26,26.60
2016,08,25,11,27,26.70
2016,08,25,11,28,26.80
2016,08,25,11,29,26.80
2016,08,25,11,30,26.80
2016,08,25,11,31,26.90
2016,08,25,11,32,26.90
2016,08,25,11,33,26.90
2016,08,25,11,34,26.90
2016,08,25,11,35,26.80
2016,08,25,11,36,26.60
2016,08,25,11,37,26.40
2016,08,25,11,38,26.10
2016,08,25,11,39,25.80
2016,08,25,11,40,25.40
2016,08,25,11,41,25.00
2016,08,25,11,42,24.80
2016,08,25,11,43,24.40
2016,08,25,11,44,24.20
2016,08,25,11,45,24.00
2016,08,25,11,46,23.80
2016,08,25,11,47,23.60
2016,08,25,11,48,23.40
2016,08,25,11,49,23.30
2016,08,25,11,50,23.20
2016,08,25,11,51,23.00
2016,08,25,11,52,22.90
2016,08,25,11,53,22.90
2016,08,25,11,54,22.90
2016,08,25,11,55,22.80
2016,08,25,11,56,22.80
2016,08,25,11,57,22.70
2016,08,25,11,58,22.70
2016,08,25,11,59,22.70
2016,08,25,12,00,22.70
2016,08,25,12,01,22.70
2016,08,25,12,02,22.70
2016,08,25,12,03,22.70
2016,08,25,12,04,22.70
2016,08,25,12,05,22.70
2016,08,25,12,06,22.90
2016,08,25,12,07,23.00
2016,08,25,12,08,23.00
2016,08,25,12,09,23.10
2016,08,25,12,10,23.20
2016,08,25,12,11,23.20
2016,08,25,12,12,23.20
2016,08,25,12,13,23.20
2016,08,25,12,14,23.20
2016,08,25,12,15,23.10
2016,08,25,12,16,23.20
2016,08,25,12,17,23.10
2016,08,25,12,18,23.10
2016,08,25,12,19,23.10
2016,08,25,12,20,23.20
2016,08,25,12,21,23.20
2016,08,25,12,22,23.20
2016,08,25,12,23,23.20
2016,08,25,12,24,23.20
2016,08,25,12,25,23.20
2016,08,25,12,26,23.20
2016,08,25,12,27,23.30
2016,08,25,12,28,23.30
2016,08,25,12,29,23.40
2016,08,25,12,30,23.50
2016,08,25,12,31,23.60
2016,08,25,12,32,23.70
2016,08,25,12,33,23.90
2016,08,25,12,34,24.00
2016,08,25,12,35,24.10
2016,08,25,12,36,24.20
2016,08,25,12,37,24.30
2016,08,25,12,38,24.40
2016,08,25,12,39,24.50
2016,08,25,12,40,24.60
2016,08,25,12,41,24.70
2016,08,25,12,42,24.90
2016,08,25,12,43,25.10
2016,08,25,12,44,25.30
2016,08,25,12,45,25.50
2016,08,25,12,46,25.70
2016,08,25,12,47,26.00
2016,08,25,12,48,26.20
2016,08,25,12,49,26.30
2016,08,25,12,50,26.50
2016,08,25,12,51,26.50
2016,08,25,12,52,26.60
2016,08,25,12,53,26.70
2016,08,25,12,54,26.70
2016,08,25,12,55,26.80
2016,08,25,12,56,26.80
2016,08,25,12,57,26.90
2016,08,25,12,58,27.00
2016,08,25,12,59,27.10
2016,08,25,13,00,27.20
2016,08,25,13,01,27.30
2016,08,25,13,02,27.40
2016,08,25,13,03,27.50
2016,08,25,13,04,27.60
2016,08,25,13,05,27.60
2016,08,25,13,06,27.70
2016,08,25,13,07,27.70
2016,08,25,13,08,27.80
2016,08,25,13,09,27.80
2016,08,25,13,10,27.90
2016,08,25,13,11,28.00
2016,08,25,13,12,28.10
2016,08,25,13,13,28.10
2016,08,25,13,14,28.20
2016,08,25,13,15,28.30
2016,08,25,13,16,28.30
2016,08,25,13,17,28.30
2016,08,25,13,18,28.30
2016,08,25,13,19,28.40
2016,08,25,13,20,28.40
2016,08,25,13,21,28.40
2016,08,25,13,22,28.30
2016,08,25,13,23,28.30
2016,08,25,13,24,28.20
2016,08,25,13,25,28.20
2016,08,25,13,26,28.10
2016,08,25,13,27,28.00
2016,08,25,13,28,28.00
2016,08,25,13,29,28.00
2016,08,25,13,30,27.90
2016,08,25,13,31,28.00
2016,08,25,13,32,28.00
2016,08,25,13,33,28.10
2016,08,25,13,34,28.20
2016,08,25,13,35,28.30
2016,08,25,13,36,28.30
2016,08,25,13,37,28.40
2016,08,25,13,38,28.40
2016,08,25,13,39,28.50
2016,08,25,13,40,28.50
2016,08,25,13,41,28.50
2016,08,25,13,42,28.50
2016,08,25,13,43,28.50
2016,08,25,13,44,28.50
2016,08,25,13,45,28.60
2016,08,25,13,46,28.60
2016,08,25,13,47,28.60
2016,08,25,13,48,28.50
2016,08,25,13,49,28.60
2016,08,25,13,50,28.60
2016,08,25,13,51,28.60
2016,08,25,13,52,28.70
2016,08,25,13,53,28.80
2016,08,25,13,54,28.80
2016,08,25,13,55,28.90
2016,08,25,13,56,29.00
2016,08,25,13,57,29.10
2016,08,25,13,58,29.10
2016,08,25,13,59,29.20
2016,08,25,14,00,29.30
2016,08,25,14,01,29.20
2016,08,25,14,02,29.20
2016,08,25,14,03,29.20
2016,08,25,14,04,29.20
2016,08,25,14,05,29.20
2016,08,25,14,06,29.20
2016,08,25,14,07,29.20
2016,08,25,14,08,29.10
2016,08,25,14,09,29.10
2016,08,25,14,10,29.00
2016,08,25,14,11,29.00
2016,08,25,14,12,29.00
2016,08,25,14,13,28.90
2016,08,25,14,14,28.80
2016,08,25,14,15,28.80
2016,08,25,14,16,28.80
2016,08,25,14,17,28.80
2016,08,25,14,18,28.90
2016,08,25,14,19,28.80
2016,08,25,14,20,28.80
2016,08,25,14,21,28.70
2016,08,25,14,22,28.60
2016,08,25,14,23,28.60
2016,08,25,14,24,28.50
2016,08,25,14,25,28.40
2016,08,25,14,26,28.40
2016,08,25,14,27,28.30
2016,08,25,14,28,28.30
2016,08,25,14,29,28.30
2016,08,25,14,30,28.30
2016,08,25,14,31,28.40
2016,08,25,14,32,28.40
2016,08,25,14,33,28.50
2016,08,25,14,34,28.60
2016,08,25,14,35,28.70
2016,08,25,14,36,28.80
2016,08,25,14,37,28.90
2016,08,25,14,38,29.10
2016,08,25,14,39,29.10
2016,08,25,14,40,29.30
2016,08,25,14,41,29.30
2016,08,25,14,42,29.40
2016,08,25,14,43,29.40
2016,08,25,14,44,29.40
2016,08,25,14,45,29.40
2016,08,25,14,46,29.40
2016,08,25,14,47,29.30
2016,08,25,14,48,29.30
2016,08,25,14,49,29.30
2016,08,25,14,50,29.30
2016,08,25,14,51,29.30
2016,08,25,14,52,29.40
2016,08,25,14,53,29.40
2016,08,25,14,54,29.50
2016,08,25,14,55,29.60
2016,08,25,14,56,29.60
2016,08,25,14,57,29.50
2016,08,25,14,58,29.50
2016,08,25,14,59,29.30
2016,08,25,15,00,29.20
2016,08,25,15,01,29.20
2016,08,25,15,02,29.20
2016,08,25,15,03,29.10
2016,08,25,15,04,29.00
2016,08,25,15,05,29.00
2016,08,25,15,06,28.90
2016,08,25,15,07,28.90
2016,08,25,15,08,28.90
2016,08,25,15,09,29.00
2016,08,25,15,10,29.00
2016,08,25,15,11,29.00
2016,08,25,15,12,29.10
2016,08,25,15,13,29.10
2016,08,25,15,14,29.20
2016,08,25,15,15,29.10
2016,08,25,15,16,29.10
2016,08,25,15,17,29.10
2016,08,25,15,18,29.10
2016,08,25,15,19,29.00
2016,08,25,15,20,29.10
2016,08,25,15,21,29.10
2016,08,25,15,22,29.10
2016,08,25,15,23,29.10
2016,08,25,15,24,29.10
2016,08,25,15,25,29.10
2016,08,25,15,26,29.10
2016,08,25,15,27,29.10
2016,08,25,15,28,29.10
2016,08,25,15,29,29.10
2016,08,25,15,30,29.10
2016,08,25,15,31,29.20
2016,08,25,15,32,29.20
2016,08,25,15,33,29.20
2016,08,25,15,34,29.20
2016,08,25,15,35,29.20
2016,08,25,15,36,29.20
2016,08,25,15,37,29.20
2016,08,25,15,38,29.30
2016,08,25,15,39,29.30
2016,08,25,15,40,29.30
2016,08,25,15,41,29.40
2016,08,25,15,42,29.50
2016,08,25,15,43,29.60
2016,08,25,15,44,29.60
2016,08,25,15,45,29.60
2016,08,25,15,46,29.60
2016,08,25,15,47,29.60
2016,08,25,15,48,29.60
2016,08,25,15,49,29.60
2016,08,25,15,50,29.70
2016,08,25,15,51,29.80
2016,08,25,15,52,29.90
2016,08,25,15,53,30.00
2016,08,25,15,54,30.00
2016,08,25,15,55,30.10
2016,08,25,15,56,30.20
2016,08,25,15,57,30.30
2016,08,25,15,58,30.40
2016,08,25,15,59,30.50
2016,08,25,16,00,30.50
2016,08,25,16,01,30.60
2016,08,25,16,02,30.70
2016,08,25,16,03,30.70
2016,08,25,16,04,30.80
2016,08,25,16,05,30.80
2016,08,25,16,06,30.90
2016,08,25,16,07,31.00
2016,08,25,16,08,31.00
2016,08,25,16,09,31.00
2016,08,25,16,10,31.00
2016,08,25,16,11,30.90
2016,08,25,16,12,30.90
2016,08,25,16,13,30.90
2016,08,25,16,14,30.90
2016,08,25,16,15,30.90
2016,08,25,16,16,30.90
2016,08,25,16,17,30.70
2016,08,25,16,18,30.40
2016,08,25,16,19,30.10
2016,08,25,16,20,29.90
2016,08,25,16,21,29.70
2016,08,25,16,22,29.50
2016,08,25,16,23,29.40
2016,08,25,16,24,29.30
2016,08,25,16,25,29.10
2016,08,25,16,26,29.00
2016,08,25,16,27,28.90
2016,08,25,16,28,28.80
2016,08,25,16,29,28.80
2016,08,25,16,30,28.80
2016,08,25,16,31,28.70
2016,08,25,16,32,28.60
2016,08,25,16,33,28.40
2016,08,25,16,34,28.20
2016,08,25,16,35,28.00
2016,08,25,16,36,27.80
2016,08,25,16,37,27.70
2016,08,25,16,38,27.60
2016,08,25,16,39,27.50
2016,08,25,16,40,27.40
2016,08,25,16,41,27.30
2016,08,25,16,42,27.30
2016,08,25,16,43,27.30
2016,08,25,16,44,27.30
2016,08,25,16,45,27.20
2016,08,25,16,46,27.20
2016,08,25,16,47,27.20
2016,08,25,16,48,27.20
2016,08,25,16,49,27.20
2016,08,25,16,50,27.20
2016,08,25,16,51,27.20
2016,08,25,16,52,27.30
2016,08,25,16,53,27.40
2016,08,25,16,54,27.50
2016,08,25,16,55,27.60
2016,08,25,16,56,27.80
2016,08,25,16,57,27.90
2016,08,25,16,58,28.10
2016,08,25,16,59,28.20
2016,08,25,17,00,28.30
2016,08,25,17,01,28.50
2016,08,25,17,02,28.60
2016,08,25,17,03,28.80
2016,08,25,17,04,28.90
2016,08,25,17,05,28.90
2016,08,25,17,06,29.00
2016,08,25,17,07,29.00
2016,08,25,17,08,29.00
2016,08,25,17,09,29.10
2016,08,25,17,10,29.10
2016,08,25,17,11,29.10
2016,08,25,17,12,29.20
2016,08,25,17,13,29.20
2016,08,25,17,14,29.20
2016,08,25,17,15,29.20
2016,08,25,17,16,29.20
2016,08,25,17,17,29.20
2016,08,25,17,18,29.20
2016,08,25,17,19,29.20